Talkeetna, AK

5:42 AM AKDT on May 30, 2017 (GMT -0800)
Talkeetna

Weather History for PATK - October, 2013

Change the Weather History Date:

Sunday, October 6, 2013

  Actual Average Record
Temperature  
Mean Temperature 38 °F -  
Max Temperature 43 °F 45 °F 61 °F (2003)
Min Temperature 34 °F 31 °F 10 °F (1958)
Degree Days  
Heating Degree Days 26    
Moisture  
Dew Point 38 °F    
Average Humidity 91    
Maximum Humidity 97    
Minimum Humidity 80    
Precipitation  
Precipitation 0.12 in - - ()
Sea Level Pressure  
Sea Level Pressure 29.72 in    
Wind  
Wind Speed 1 mph (ESE)    
Max Wind Speed 4 mph    
Max Gust Speed -    
Visibility 9 miles    
Events Rain    
Averages and records for this station are not official NWS values.
T = Trace of Precipitation, MM = Missing Value Source: NWS Daily Summary

Daily Weather History Graph

Daily Weather History Graph

Search for Another Location

Airport or City:

Trip Planner

Search our weather history database for the weather conditions in past years. The results will help you decide how hot, cold, wet, or windy it might be!

Date:

Astronomy

Oct. 06, 2013 Rise Set
Actual Time 8:22 AM AKDT 7:13 PM AKDT
Civil Twilight 7:37 AM AKDT 7:57 PM AKDT
Nautical Twilight 6:45 AM AKDT 8:49 PM AKDT
Astronomical Twilight 5:50 AM AKDT 9:43 PM AKDT
Moon 11:04 AM AKDT (10/6) 7:28 PM AKDT (10/6)
Length of Visible Light 12h 20m
Length of Day
10h 50m
Waxing Crescent, 4% of the Moon is Illuminated
Oct 6
Waxing Crescent
Oct 11
First Quarter
Oct 18
Full
Oct 26
Last Quarter
Nov 3
New

Hourly Weather History & Observations

Time (AKDT) Temp. Windchill Dew Point Humidity Pressure Visibility Wind Dir Wind Speed Gust Speed Precip Events Conditions
12:53 AM 39.0 °F - 37.0 °F 93% 29.73 in 10.0 mi Calm Calm - 0.00 in Rain Light Rain
1:53 AM 37.9 °F - 36.0 °F 93% 29.73 in 10.0 mi Calm Calm - 0.00 in   Overcast
2:53 AM 39.0 °F 36.8 °F 37.0 °F 93% 29.73 in 10.0 mi North 3.5 mph - 0.00 in   Overcast
3:53 AM 39.0 °F - 37.0 °F 93% 29.73 in 10.0 mi Calm Calm - 0.00 in Rain Light Rain
4:53 AM 39.9 °F - 37.9 °F 93% 29.73 in 10.0 mi Calm Calm - 0.01 in Rain Light Rain
5:53 AM 39.0 °F - 37.9 °F 96% 29.73 in 8.0 mi Calm Calm - 0.04 in Rain Light Rain
6:53 AM 39.0 °F 36.8 °F 37.9 °F 96% 29.73 in 10.0 mi NE 3.5 mph - 0.01 in   Overcast
7:53 AM 39.9 °F 37.8 °F 37.9 °F 93% 29.73 in 10.0 mi North 3.5 mph - 0.00 in   Overcast
8:04 AM 39.2 °F - 37.4 °F 93% 29.71 in 10.0 mi Calm Calm - N/A   Overcast
8:53 AM 39.9 °F - 37.9 °F 93% 29.73 in 10.0 mi Calm Calm - 0.00 in Rain Light Rain
9:10 AM 39.2 °F - 37.4 °F 93% 29.71 in 10.0 mi Calm Calm - 0.00 in   Overcast
9:53 AM 39.9 °F 37.8 °F 37.9 °F 93% 29.73 in 10.0 mi NE 3.5 mph - 0.00 in   Overcast
10:53 AM 41.0 °F - 39.0 °F 93% 29.73 in 8.0 mi Calm Calm - 0.01 in Rain Light Rain
11:51 AM 41.0 °F - 39.2 °F 93% 29.71 in 10.0 mi Calm Calm - 0.01 in Rain Light Rain
11:53 AM 41.0 °F - 39.0 °F 93% 29.73 in 10.0 mi Calm Calm - 0.01 in Rain Light Rain
12:27 PM 41.0 °F - 39.2 °F 93% 29.71 in 10.0 mi Calm Calm - N/A   Overcast
12:53 PM 41.0 °F - 37.9 °F 89% 29.73 in 10.0 mi Calm Calm - 0.00 in Rain Light Rain
1:53 PM 41.0 °F - 39.0 °F 93% 29.73 in 5.0 mi Calm Calm - 0.04 in Rain Light Rain
2:04 PM 41.0 °F - 39.2 °F 93% 29.71 in 7.0 mi Calm Calm - 0.00 in Rain Light Rain
2:53 PM 42.1 °F - 39.0 °F 89% 29.72 in 7.0 mi Calm Calm - 0.03 in Rain Light Rain
3:53 PM 42.1 °F 40.2 °F 37.9 °F 85% 29.71 in 5.0 mi South 3.5 mph - 0.02 in Rain Light Rain
4:15 PM 42.8 °F 41.1 °F 39.2 °F 87% 29.70 in 4.0 mi South 3.5 mph - 0.01 in Rain Light Rain
4:53 PM 41.0 °F 39.0 °F 37.9 °F 89% 29.71 in 10.0 mi South 3.5 mph - 0.02 in Rain Light Rain
5:53 PM 41.0 °F - 37.9 °F 89% 29.70 in 10.0 mi Calm Calm - 0.00 in   Overcast
6:53 PM 41.0 °F - 37.9 °F 89% 29.70 in 10.0 mi Calm Calm - 0.00 in Rain Light Rain
7:53 PM 41.0 °F - 37.9 °F 89% 29.70 in 10.0 mi Calm Calm - 0.01 in Rain Light Rain
8:53 PM 39.9 °F - 37.9 °F 93% 29.71 in 5.0 mi Calm Calm - 0.01 in Rain Light Rain
9:20 PM 39.2 °F 37.0 °F 37.4 °F 93% 29.70 in 5.0 mi SE 3.5 mph - 0.00 in   Overcast
9:53 PM 39.9 °F - 37.9 °F 93% 29.72 in 10.0 mi Calm Calm - 0.00 in Rain Light Rain
10:14 PM 39.2 °F - 37.4 °F 93% 29.71 in 10.0 mi Calm Calm - 0.00 in   Overcast
10:53 PM 39.9 °F - 37.0 °F 89% 29.73 in 10.0 mi Calm Calm - 0.00 in   Overcast
11:26 PM 39.2 °F - 37.4 °F 93% 29.72 in 5.0 mi Calm Calm - N/A   Overcast
11:53 PM 39.9 °F - 39.0 °F 97% 29.74 in 9.0 mi Calm Calm - N/A   Overcast